This demonstration page uses our WeatherBlox Daily Observations layout. Learn more.

Left ArrowRight Arrow

36.19886, -115.1175

Hourly Observations for September 14, 2021

Temp ( °F °C ) Dew Point ( °F °C ) Humidity (%) Winds ( mph kmh ) Pressure ( in mb ) Visibility ( mi km ) Precip ( " mm )
12:53 am 00:53 Clear 85 29.4 28 -2.2 13 13 NE 3 6 29.78 1008 10 16 0.00 0.00
2:53 am 02:53 Clear 81 27.2 30 -1.1 16 16 WNW 6 9 29.80 1009 10 16 0.00 0.00
3:53 am 03:53 Clear 78 25.6 32 0 19 19 NNW 5 7 29.80 1009 10 16 0.00 0.00
4:53 am 04:53 Clear 75 23.9 33 0.6 22 22 Calm 29.81 1010 10 16 0.00 0.00
5:53 am 05:53 Clear 74 23.3 32 0 21 21 NW 5 7 29.83 1010 10 16 0.00 0.00
6:53 am 06:53 Sunny 77 25 30 -1.1 18 18 NW 6 9 29.85 1011 10 16 0.00 0.00
7:53 am 07:53 Sunny 81 27.2 32 0 17 17 N 3 6 29.86 1011 10 16 0.00 0.00
8:53 am 08:53 Sunny 89 31.7 28 -2.2 11 11 NNW 7 11 29.87 1012 10 16 0.00 0.00
9:53 am 09:53 Sunny 92 33.3 24 -4.4 8 8 NNW 7 11 29.88 1012 10 16 0.00 0.00
10:53 am 10:53 Sunny 96 35.6 24 -4.4 7 7 VRB 5 7 29.88 1012 10 16 0.00 0.00
11:53 am 11:53 Sunny 97 36.1 23 -5 7 7 E 5 7 29.86 1011 10 16 0.00 0.00
12:53 pm 12:53 Sunny 99 37.2 25 -3.9 7 7 SSE 10 17 29.85 1011 10 16 0.00 0.00
1:53 pm 13:53 Sunny 100 37.8 24 -4.4 7 7 S 7 11 29.66 1004 10 16 0.00 0.00
2:53 pm 14:53 Sunny 102 38.9 26 -3.3 7 7 VRB 6 9 29.79 1009 10 16 0.00 0.00
3:53 pm 15:53 Sunny 102 38.9 24 -4.4 6 6 Calm 29.78 1008 10 16 0.00 0.00
4:53 pm 16:53 Sunny 102 38.9 23 -5 6 6 SSE 5 7 29.77 1008 10 16 0.00 0.00
5:53 pm 17:53 Sunny 102 38.9 21 -6.1 5 5 S 7 11 29.76 1008 10 16 0.00 0.00
6:53 pm 18:53 Clear 99 37.2 25 -3.9 7 7 SSE 5 7 29.76 1008 10 16 0.00 0.00
7:53 pm 19:53 Clear 97 36.1 29 -1.7 9 9 S 5 7 29.78 1008 10 16 0.00 0.00
8:53 pm 20:53 Clear 93 33.9 31 -0.6 11 11 SE 6 9 29.79 1009 10 16 0.00 0.00
9:53 pm 21:53 Clear 89 31.7 28 -2.2 11 11 NNW 8 13 29.80 1009 10 16 0.00 0.00
10:53 pm 22:53 Clear 86 30 26 -3.3 11 11 NW 6 9 29.80 1009 10 16 0.00 0.00
11:53 pm 23:53 Clear 85 29.4 30 -1.1 14 14 Calm 29.80 1009 10 16 0.00 0.00

Powered by AerisWeather